Temp_Advection
nan nan nan nan nan nan nan nan nan nan nan nan nan nan nan nan nan nan nan nan nan nan nan nan nan nan nan nan nan nan nan nan nan nan nan nan nan nan nan nan nan nan nan
nan -1 0 1 0 0 1 1 0 1 0 0 -0 -0 -0 -0 -0 -0 0 0 -0 -0 0 0 -0 -0 -0 -0 -0 0 0 0 0 0 -0 -0 -0 -0 0 0 -0 -0 nan
nan -0 -1 0 1 1 0 0 0 0 0 0 0 0 -0 -0 -0 -0 -0 -0 0 0 -0 -0 -0 -0 -0 -0 0 0 -0 -0 0 0 0 -0 -0 -0 -0 -0 -0 -1 nan
nan 1 1 1 2 2 1 1 0 0 0 0 0 0 0 -0 -0 -0 -0 -0 -0 -0 -0 -0 -0 -0 -0 -0 0 0 -0 0 0 0 -0 -0 -0 -0 -0 -0 -0 -1 nan
nan 1 2 2 -1 1 0 1 0 0 0 0 0 0 0 0 -0 -0 -0 -0 -0 -0 -0 -1 -0 -0 -0 -0 -0 0 0 -0 0 0 0 -0 -0 -0 -0 -0 -0 -0 nan
nan 1 1 0 1 1 1 0 0 0 0 0 0 0 0 0 0 -0 -0 -0 -0 -0 -0 -1 -0 -0 -0 0 -0 -0 -0 -0 0 0 -0 -0 -0 -0 -0 -0 -0 -0 nan
nan 2 2 1 4 0 2 0 0 1 1 0 0 0 0 0 0 0 -0 0 -0 -0 -0 -0 -0 -0 -0 0 0 -0 -0 0 0 -0 -0 -0 -0 -0 -0 -0 -0 -0 nan
nan 1 -0 0 1 2 1 1 1 1 0 0 0 0 0 0 0 0 0 0 0 -0 -0 -0 -0 -1 -0 0 0 0 -0 -0 -0 -0 0 -0 -0 -0 -0 -0 -0 -0 nan
nan -0 -1 0 0 1 -1 2 2 0 0 0 0 0 0 0 0 0 0 0 0 0 0 -0 -0 -0 -0 -0 -0 -0 -0 -0 -0 -0 0 -0 -0 -0 -0 -0 -0 -0 nan
nan -0 1 0 1 1 -0 2 2 1 0 0 0 0 0 1 0 0 0 0 0 -0 -0 0 0 0 -0 -0 -0 -0 -0 -0 0 -0 -0 -0 -0 -0 -0 -0 -0 -0 nan
nan 0 1 0 1 -1 1 2 1 1 1 1 1 1 0 0 0 0 0 0 0 0 0 0 0 0 0 0 -0 -0 -0 -0 -0 -0 -0 -0 -0 -0 -0 -0 -0 -0 nan
nan -1 0 0 -1 -1 1 2 1 1 1 1 0 0 0 0 0 -0 0 0 0 0 -0 0 0 0 0 0 0 0 -0 -0 -0 -0 -0 -0 -0 -0 -0 -0 -0 -0 nan
nan -0 0 0 -1 -0 -0 1 1 1 1 1 0 0 -0 -0 0 0 0 0 0 0 -0 -0 -0 0 0 0 0 0 0 -0 -0 -0 -0 -0 -0 -0 -0 -0 -0 -0 nan
nan 1 -0 1 -0 -0 -0 -0 1 1 1 0 0 0 0 -0 -0 0 -0 0 0 0 0 -0 0 -0 0 0 0 0 0 0 -0 -0 -0 -0 -0 -0 -0 0 -0 -0 nan
nan -0 -0 0 1 -0 -0 0 1 1 1 1 0 0 0 -0 0 0 0 0 -0 0 0 0 0 0 0 -0 0 0 0 0 0 0 -0 -0 -0 -0 0 -0 -0 -0 nan
nan -0 0 0 1 1 0 0 1 1 1 1 1 1 1 1 0 -0 0 -0 0 0 0 0 0 0 -0 -0 0 0 0 0 0 0 -0 -0 -0 0 0 0 0 -0 nan
nan 0 0 0 1 1 1 1 1 1 1 0 1 1 1 1 0 0 0 -0 0 0 0 0 0 -0 -0 0 0 0 0 -0 -0 -0 -0 -0 0 0 0 0 0 0 nan
nan 0 0 1 0 0 1 0 1 0 1 0 1 0 0 1 0 1 0 0 0 1 0 0 -0 -0 0 0 0 0 0 -0 -0 -0 -0 -0 -0 0 0 0 -0 0 nan
nan 0 1 1 1 1 1 1 1 1 1 1 1 0 0 0 1 1 0 1 1 0 0 0 0 0 0 0 0 0 0 0 -0 -0 -0 0 0 0 0 0 -0 -0 nan
nan 1 1 1 1 1 0 1 1 1 1 1 0 0 1 1 0 0 0 0 0 0 0 0 0 0 0 0 0 0 0 0 -0 -0 -0 0 0 0 0 0 0 -0 nan
nan 0 0 0 0 0 -0 -0 0 1 0 0 -0 0 0 1 -0 -0 -0 -0 0 0 0 0 0 -0 0 0 0 0 0 0 0 0 0 0 0 0 0 0 0 0 nan
nan 0 0 -0 -0 -1 -0 -0 -1 -0 -0 -1 -0 0 0 -1 -1 -0 0 -0 0 0 0 -0 -0 -0 0 0 0 0 0 0 0 0 0 0 0 0 0 0 0 0 nan
nan -0 0 0 -0 -0 -0 -0 -1 -1 -1 -0 -0 0 -1 -2 -1 1 0 0 1 0 0 -0 -0 0 0 0 0 0 0 -0 0 0 0 0 0 0 0 0 0 0 nan
nan -0 -0 -0 -1 -0 -0 -1 -1 -1 -1 -0 -0 -1 -1 -0 1 1 1 1 0 0 0 -0 0 1 0 0 0 0 0 0 0 0 0 0 0 0 0 0 0 0 nan
nan -0 -1 -1 -1 -1 -1 -1 -1 -1 -1 -0 -0 -0 0 1 1 0 1 0 0 0 -0 0 1 1 0 0 0 1 1 0 0 0 0 0 0 0 0 0 0 0 nan
nan nan nan nan nan nan nan nan nan nan nan nan nan nan nan nan nan nan nan nan nan nan nan nan nan nan nan nan nan nan nan nan nan nan nan nan nan nan nan nan nan nan nan
Wind_Speed
17 33 34 27 29 35 40 37 33 32 29 28 26 24 21 20 22 25 25 26 28 29 28 28 27 26 27 29 29 28 27 24 22 22 22 22 22 21 21 20 19 19 18
22 34 35 33 35 31 34 36 33 31 31 29 28 24 21 22 25 25 26 29 32 31 31 29 29 30 30 30 29 27 27 25 22 20 20 21 21 20 19 18 17 17 17
27 35 36 33 34 35 34 35 33 31 31 30 28 24 22 25 27 28 29 31 32 31 31 32 32 30 28 25 23 23 25 24 23 19 18 20 20 19 18 18 17 18 20
34 31 29 39 31 32 33 36 34 32 32 30 27 24 24 27 28 29 31 32 32 32 32 32 30 29 26 22 20 19 20 20 21 21 18 19 19 19 18 17 17 17 20
24 23 32 39 31 28 35 35 34 32 32 30 27 24 27 29 31 31 33 33 32 32 31 31 30 28 25 20 16 15 17 17 17 18 17 17 19 18 18 17 17 17 16
19 26 33 29 29 39 39 37 35 34 33 30 27 26 29 31 32 33 33 33 32 31 31 32 29 26 20 14 12 12 14 14 15 17 18 17 18 18 18 18 18 17 16
19 30 30 31 41 44 46 40 37 35 33 31 28 27 31 31 32 32 33 33 32 31 31 31 29 25 19 16 17 17 13 12 12 14 17 15 17 17 16 16 17 16 16
20 24 28 30 31 43 54 44 40 37 34 31 28 31 33 33 32 32 32 31 30 29 30 28 27 24 19 17 17 16 12 9 11 12 15 14 14 16 16 16 17 17 16
14 22 14 24 27 44 35 47 43 39 34 30 30 33 35 35 32 31 31 30 29 28 26 26 23 22 19 14 15 14 11 9 9 10 12 12 13 14 15 16 16 16 16
14 18 18 23 21 39 55 48 43 37 33 30 31 34 35 34 32 31 30 28 26 25 23 22 21 19 18 14 12 10 8 7 6 9 11 11 12 13 14 15 15 16 16
8 14 20 13 42 33 61 48 41 37 33 32 35 35 36 33 31 29 28 26 24 22 21 19 18 16 15 13 9 7 4 4 5 7 9 10 11 11 12 12 13 14 14
15 15 10 11 48 59 46 44 42 38 35 36 36 35 34 33 31 30 27 25 23 22 20 18 16 14 13 12 8 5 3 2 4 6 9 9 8 7 8 10 12 13 13
20 12 14 14 23 44 43 42 39 36 37 37 37 36 35 32 29 28 27 26 24 21 19 18 14 14 12 9 6 4 2 1 2 5 6 6 5 5 6 8 9 10 10
12 15 18 23 27 22 35 35 37 39 38 38 36 35 34 29 30 28 28 25 23 20 19 16 14 10 10 7 3 2 3 1 2 3 3 4 3 4 4 5 8 9 8
17 21 24 24 31 33 37 38 35 37 37 36 36 35 31 30 27 29 26 24 22 20 18 15 12 10 7 4 3 4 3 2 1 3 3 4 4 2 2 6 9 10 10
18 17 23 25 27 34 38 41 43 42 39 37 38 33 31 28 29 26 25 23 21 19 17 14 11 9 8 6 7 5 3 1 1 3 4 3 3 3 3 5 6 7 10
22 20 27 33 36 40 40 40 41 41 40 37 33 30 27 27 26 23 22 20 20 19 17 15 13 12 9 9 6 4 2 1 4 4 4 5 5 5 5 8 6 6 8
27 34 33 38 41 43 42 43 41 36 35 36 30 27 22 22 23 22 22 20 20 20 16 14 15 12 11 9 7 3 1 3 4 4 4 6 7 8 8 8 8 8 9
21 28 34 36 38 40 41 45 39 40 36 35 35 30 30 22 22 22 20 21 21 19 16 17 14 11 10 11 7 5 3 3 5 5 5 7 9 9 10 8 11 10 12
19 22 32 37 38 38 39 39 40 42 37 34 35 35 25 30 21 23 20 17 18 20 20 19 15 13 13 12 11 9 9 7 7 8 9 9 10 12 11 10 12 12 15
19 18 23 32 32 38 37 39 43 41 38 36 33 30 30 26 23 20 19 21 24 24 23 22 20 19 18 17 15 13 13 12 12 13 14 12 13 13 12 13 14 13 15
21 22 23 27 31 36 35 35 41 37 38 34 34 33 29 27 21 20 24 23 27 27 26 26 25 25 23 22 22 18 12 15 15 17 17 15 14 15 15 15 16 16 15
21 25 27 28 33 32 31 34 35 36 34 36 35 32 31 33 27 24 25 26 27 29 29 28 27 27 25 26 25 19 10 10 12 14 18 18 16 15 15 15 18 19 18
27 27 32 33 32 33 33 37 35 38 36 36 37 34 35 31 28 26 28 30 29 31 29 28 28 27 27 29 28 26 23 16 11 10 15 15 17 18 19 18 18 18 19
34 36 33 32 33 36 36 36 33 36 37 34 36 35 33 31 29 27 30 31 34 32 30 29 30 29 29 31 31 28 25 21 17 17 13 17 18 17 19 19 18 19 19
40 39 37 35 34 35 38 37 37 36 37 37 36 33 34 32 32 33 33 35 34 34 33 30 31 31 31 32 31 29 26 22 20 19 18 20 19 19 20 20 21 20 19
Wind_Direction
170 177 174 182 190 168 168 169 170 160 155 149 143 135 134 137 139 141 139 133 129 124 121 117 116 112 108 102 98 95 88 82 77 78 80 78 76 74 72 70 70 72 72
173 176 177 179 171 171 170 169 167 161 157 153 147 146 144 144 142 140 135 129 126 122 118 116 112 111 107 103 99 95 88 80 74 73 75 75 71 69 68 69 68 69 71
175 177 174 180 176 177 177 170 167 164 159 154 151 148 143 143 140 138 133 128 123 121 120 120 117 111 106 98 93 96 84 74 67 68 70 73 70 65 62 62 63 66 69
179 185 195 185 182 183 181 172 171 165 159 156 151 145 144 145 140 136 133 131 128 125 123 122 116 111 105 97 92 94 88 79 72 61 65 70 71 66 64 63 65 69 73
182 188 185 182 199 197 184 177 172 167 162 159 152 147 148 147 144 139 137 135 132 129 125 123 118 111 106 107 116 108 98 87 73 59 59 64 66 66 65 65 65 65 68
201 192 188 196 223 212 188 180 174 171 165 159 152 149 151 149 145 140 140 136 134 128 125 124 121 117 110 114 118 111 102 86 68 58 50 58 65 64 61 60 58 61 64
190 215 216 206 191 190 193 181 177 174 167 161 153 153 152 150 145 143 142 140 136 130 127 129 128 122 106 98 108 122 116 94 70 61 41 49 60 58 58 55 55 55 56
195 203 197 191 200 212 192 181 179 174 168 160 154 155 153 151 148 145 143 141 137 133 131 134 135 129 107 101 108 118 119 79 62 52 43 45 54 54 52 47 46 48 50
202 189 191 202 232 228 209 182 177 173 166 158 156 156 155 153 150 146 145 142 139 137 135 133 133 139 130 113 106 106 100 84 60 42 34 36 46 51 48 44 40 45 51
218 213 248 245 236 217 196 178 172 167 164 159 157 156 155 156 152 147 146 143 140 140 140 136 133 133 146 144 117 110 99 77 45 34 32 29 34 45 42 42 43 37 37
175 230 247 228 241 227 171 169 167 166 161 159 155 156 156 155 151 148 145 143 142 142 143 141 137 141 144 154 149 136 123 84 45 37 24 28 24 34 41 39 37 36 35
141 107 117 52 134 154 159 161 163 160 159 157 156 155 154 153 151 149 147 148 149 148 146 148 148 154 153 148 148 149 157 90 38 34 28 21 17 24 40 38 36 29 28
157 144 126 128 101 137 152 157 159 157 157 156 157 156 154 147 147 151 153 158 156 154 156 161 166 159 148 137 130 127 166 63 28 19 30 25 10 26 35 42 24 20 15
178 171 149 143 153 161 160 157 158 159 157 157 157 154 148 146 158 162 164 163 161 160 171 169 164 168 158 141 112 215 203 285 336 345 25 42 30 50 89 20 3 356 10
172 168 160 162 153 169 167 164 163 158 158 155 155 153 154 157 170 167 168 165 168 168 178 168 173 177 177 167 217 207 201 240 299 305 355 36 36 22 19 348 339 343 346
184 176 176 176 173 168 167 167 165 161 156 156 156 153 166 169 175 171 169 172 176 179 180 183 187 187 192 197 198 189 197 245 301 301 328 2 14 350 321 323 317 319 334
177 183 185 182 174 169 167 164 161 161 163 166 162 165 165 171 176 172 179 181 183 187 189 193 194 194 201 193 187 193 166 61 341 323 324 329 334 321 308 320 311 312 321
183 180 187 180 171 169 167 167 166 167 164 165 167 161 161 172 178 180 187 189 193 194 194 204 201 197 201 199 194 202 207 344 341 337 341 327 320 310 307 315 329 327 324
185 184 178 179 184 180 172 176 178 172 166 169 173 169 178 178 185 190 190 200 199 197 207 209 206 214 216 209 207 233 263 306 316 316 309 309 316 310 304 320 337 328 326
202 196 193 176 184 183 174 175 178 171 172 179 175 184 183 187 200 196 194 200 206 214 214 213 217 219 221 221 219 236 245 260 277 294 292 297 296 302 298 310 323 329 329
196 194 197 190 185 184 191 188 186 193 187 183 181 199 191 196 202 200 203 216 222 220 215 217 219 227 215 214 218 225 230 244 259 266 272 273 278 286 283 292 301 310 319
196 195 194 190 188 184 183 186 180 186 188 192 191 195 197 196 209 215 218 218 221 219 214 218 228 222 216 216 217 223 231 239 244 242 250 257 264 270 272 279 290 298 306
204 202 196 188 184 190 190 181 182 193 201 194 195 200 204 207 212 221 225 224 224 219 222 227 227 225 221 219 222 220 209 220 229 237 242 245 247 254 263 276 291 293 294
206 199 195 194 193 192 187 186 189 191 193 202 205 211 206 213 219 221 227 228 228 225 230 237 232 227 226 228 224 224 230 240 220 221 235 244 245 251 253 258 265 270 274
192 188 185 184 187 186 188 188 189 195 199 199 204 214 222 224 229 231 230 234 230 227 236 240 233 231 233 232 232 230 230 233 243 240 238 234 248 257 256 258 255 253 261
190 189 189 188 189 188 191 193 197 203 208 214 218 222 227 229 229 227 226 230 234 233 235 237 238 240 241 238 232 236 239 241 250 248 251 264 267 264 263 267 269 271 272
Height
1496 1499 1509 1507 1522 1516 1514 1523 1527 1523 1525 1526 1529 1529 1533 1536 1538 1540 1541 1541 1545 1545 1548 1550 1551 1552 1552 1554 1554 1554 1555 1556 1557 1556 1556 1556 1557 1557 1557 1558 1557 1556 1556
1494 1498 1502 1510 1511 1519 1521 1523 1526 1525 1527 1528 1527 1532 1536 1539 1541 1543 1544 1545 1546 1549 1549 1553 1552 1554 1554 1556 1557 1558 1558 1558 1559 1559 1559 1558 1559 1559 1560 1559 1559 1558 1557
1494 1495 1500 1509 1511 1518 1521 1521 1524 1527 1527 1526 1529 1532 1534 1539 1542 1543 1547 1548 1549 1551 1552 1554 1555 1556 1557 1559 1559 1560 1561 1561 1562 1562 1562 1560 1561 1561 1562 1561 1561 1560 1560
1495 1502 1493 1507 1515 1520 1523 1519 1523 1525 1525 1527 1529 1530 1534 1538 1541 1543 1547 1550 1552 1555 1555 1556 1558 1559 1560 1561 1562 1563 1563 1564 1564 1565 1565 1563 1563 1564 1564 1564 1563 1562 1562
1497 1501 1503 1506 1507 1513 1522 1522 1523 1525 1525 1527 1527 1530 1533 1536 1540 1545 1547 1551 1554 1557 1556 1558 1561 1562 1564 1564 1564 1566 1566 1566 1567 1567 1568 1567 1566 1567 1566 1567 1566 1564 1564
1495 1499 1505 1510 1499 1513 1516 1521 1522 1523 1523 1524 1527 1530 1533 1538 1540 1544 1549 1551 1556 1558 1559 1560 1564 1566 1567 1566 1567 1568 1569 1568 1569 1568 1571 1569 1568 1569 1569 1569 1567 1567 1567
1489 1492 1499 1506 1503 1506 1508 1515 1519 1521 1521 1523 1524 1529 1534 1540 1543 1545 1549 1552 1556 1559 1561 1564 1566 1569 1568 1569 1569 1569 1571 1572 1571 1571 1573 1572 1571 1571 1571 1571 1570 1569 1569
1487 1490 1497 1497 1501 1506 1504 1509 1515 1518 1521 1522 1523 1528 1532 1539 1544 1546 1550 1554 1556 1560 1563 1566 1568 1570 1570 1570 1572 1573 1573 1574 1573 1573 1574 1574 1574 1573 1573 1573 1571 1570 1570
1485 1487 1490 1492 1492 1493 1499 1504 1510 1517 1520 1521 1523 1528 1532 1539 1544 1548 1552 1555 1558 1561 1565 1568 1570 1571 1572 1571 1572 1574 1575 1577 1576 1576 1576 1576 1575 1575 1575 1574 1572 1572 1572
1480 1482 1488 1484 1479 1487 1487 1501 1504 1513 1520 1520 1522 1527 1534 1539 1544 1549 1554 1557 1559 1563 1567 1569 1571 1572 1574 1573 1574 1576 1576 1578 1578 1578 1578 1577 1577 1576 1575 1575 1574 1573 1573
1479 1476 1475 1465 1461 1461 1473 1494 1502 1514 1519 1520 1522 1529 1534 1540 1545 1551 1554 1558 1562 1565 1568 1571 1572 1574 1576 1574 1576 1577 1578 1580 1580 1580 1579 1578 1577 1577 1576 1577 1576 1575 1575
1477 1477 1469 1462 1445 1443 1478 1492 1506 1509 1515 1519 1524 1529 1534 1539 1545 1551 1554 1558 1562 1566 1567 1570 1572 1573 1578 1576 1578 1579 1580 1580 1581 1581 1580 1580 1579 1578 1578 1578 1578 1577 1576
1477 1478 1478 1469 1458 1470 1486 1495 1503 1507 1513 1517 1525 1529 1534 1539 1548 1551 1555 1558 1562 1565 1567 1570 1571 1576 1577 1577 1577 1579 1581 1581 1581 1582 1581 1580 1580 1579 1579 1578 1579 1579 1578
1476 1477 1479 1477 1479 1486 1492 1497 1503 1508 1511 1519 1525 1529 1534 1539 1549 1553 1555 1559 1562 1563 1567 1569 1572 1576 1577 1577 1576 1578 1580 1581 1581 1581 1581 1581 1580 1580 1580 1579 1579 1579 1579
1477 1478 1479 1480 1479 1485 1491 1494 1505 1510 1518 1522 1527 1530 1535 1541 1549 1552 1556 1559 1561 1563 1568 1569 1572 1574 1577 1577 1578 1578 1579 1580 1580 1581 1581 1581 1580 1580 1581 1581 1580 1579 1579
1474 1477 1481 1485 1485 1487 1493 1500 1505 1510 1516 1522 1526 1530 1537 1542 1548 1551 1555 1558 1560 1563 1567 1569 1571 1573 1575 1576 1578 1578 1579 1579 1579 1580 1580 1580 1580 1580 1581 1581 1581 1580 1579
1477 1477 1480 1484 1487 1492 1497 1505 1510 1512 1514 1524 1529 1532 1537 1542 1547 1549 1554 1556 1558 1562 1566 1568 1570 1572 1575 1576 1576 1576 1578 1579 1579 1579 1578 1579 1580 1581 1581 1581 1580 1580 1579
1479 1478 1481 1484 1487 1494 1499 1508 1513 1515 1521 1524 1529 1532 1538 1542 1546 1549 1552 1554 1558 1561 1564 1567 1569 1570 1573 1574 1575 1576 1577 1578 1578 1577 1577 1578 1578 1579 1579 1579 1578 1578 1578
1480 1482 1483 1487 1491 1495 1501 1507 1512 1515 1518 1521 1527 1532 1538 1542 1545 1548 1551 1553 1557 1559 1561 1565 1568 1569 1570 1572 1574 1576 1576 1576 1576 1576 1577 1577 1578 1577 1577 1576 1576 1576 1575
1483 1485 1487 1489 1494 1500 1503 1506 1509 1512 1518 1522 1527 1533 1539 1541 1544 1548 1549 1552 1555 1558 1561 1563 1566 1567 1569 1571 1573 1574 1574 1574 1574 1574 1575 1574 1575 1575 1575 1573 1574 1573 1571
1483 1486 1489 1492 1496 1501 1503 1507 1509 1514 1518 1522 1527 1533 1537 1542 1544 1545 1547 1550 1553 1555 1558 1562 1563 1564 1566 1568 1570 1571 1572 1572 1571 1571 1571 1571 1572 1571 1571 1570 1570 1569 1568
1481 1484 1487 1491 1493 1499 1500 1504 1508 1512 1516 1523 1527 1531 1535 1538 1540 1541 1543 1546 1549 1552 1554 1556 1558 1559 1561 1564 1566 1567 1568 1569 1567 1567 1568 1569 1570 1568 1567 1566 1566 1565 1564
1480 1483 1485 1488 1493 1497 1501 1504 1510 1513 1519 1523 1523 1527 1531 1535 1537 1539 1541 1543 1545 1548 1550 1552 1554 1555 1556 1558 1561 1563 1563 1563 1563 1563 1564 1564 1565 1564 1564 1565 1563 1563 1561
1481 1484 1487 1490 1493 1497 1501 1506 1509 1511 1513 1518 1521 1525 1527 1531 1534 1536 1537 1539 1543 1545 1548 1549 1551 1551 1553 1554 1556 1556 1556 1558 1558 1559 1559 1560 1561 1560 1561 1561 1560 1560 1559
1480 1483 1487 1489 1494 1497 1501 1505 1506 1510 1514 1517 1522 1523 1525 1528 1529 1532 1534 1536 1538 1540 1543 1544 1545 1546 1548 1550 1551 1552 1553 1554 1554 1554 1553 1556 1556 1555 1556 1556 1555 1554 1554
1478 1482 1485 1488 1493 1496 1500 1503 1505 1507 1511 1515 1516 1516 1520 1522 1524 1527 1529 1530 1532 1535 1536 1538 1540 1541 1542 1544 1546 1549 1550 1551 1549 1550 1550 1549 1549 1550 1551 1550 1550 1550 1548